Theta_e
303 305 305 308 308 307 306 306 306 306 309 308 305 305 306 304 295 292 301 307 306 308 314 319 320 321 322 323 325 328 329 330 331 330 331 331 331 333 333 334 334 335 337 337 338 340 341 341 341 342 343 344 345 345 345 345 345 345 345 344 344 345 347 347 347 347 346 346 347 348 349 347 346 345 343 342 342 342 344 343 345 344 346 346 345 346 348
305 304 305 308 305 307 307 307 306 306 308 307 308 308 309 308 304 306 305 307 309 314 317 319 321 324 325 326 327 327 327 328 329 329 329 330 330 330 332 333 335 337 339 338 339 339 339 340 341 342 344 344 344 344 344 345 345 345 345 344 343 344 346 347 348 348 349 351 348 346 346 345 345 345 345 343 343 341 342 342 344 346 345 346 347 346 347
299 303 307 307 306 305 302 304 306 308 307 307 308 310 312 313 311 312 311 310 308 316 320 321 323 323 324 323 322 323 325 326 328 329 328 329 329 331 333 334 335 335 337 340 341 339 338 338 338 343 345 345 345 344 344 345 345 346 346 345 345 346 346 347 349 351 354 354 352 348 348 346 345 347 346 346 345 344 344 345 345 348 346 345 346 347 348
295 302 303 303 304 304 303 302 305 305 305 303 307 305 311 309 308 309 308 304 304 312 319 321 321 321 321 321 321 322 323 326 327 327 328 329 330 331 331 332 332 334 336 336 338 339 340 341 340 340 339 344 345 344 345 345 346 348 347 346 346 347 348 348 349 351 354 354 351 350 351 349 349 349 347 346 345 346 347 347 348 349 347 347 347 347 348
292 299 303 302 303 299 296 298 302 305 307 309 311 312 314 315 314 306 302 302 310 315 320 316 318 320 322 322 322 322 323 326 328 327 327 329 330 330 331 331 332 333 335 337 338 340 342 342 342 342 341 339 340 342 345 346 347 347 347 348 348 348 347 348 348 350 353 352 351 351 350 351 351 350 347 346 346 346 346 348 349 347 346 347 347 348 348
291 298 302 302 294 288 290 302 308 311 307 310 307 307 310 315 315 309 310 312 316 318 318 317 315 318 319 323 326 327 323 323 325 327 328 329 330 330 332 333 332 333 335 337 339 340 341 343 344 345 345 343 342 342 343 343 345 346 346 346 347 347 347 347 348 350 352 353 350 350 350 350 350 349 347 347 346 346 347 348 346 346 347 346 347 347 348
291 297 298 292 288 288 300 308 310 312 311 313 313 314 316 316 317 316 314 315 315 317 318 319 319 320 324 326 326 326 326 327 327 327 328 328 329 330 333 333 334 335 335 335 337 340 342 343 343 343 342 343 343 343 344 342 342 340 343 344 345 346 346 347 348 350 352 352 350 349 348 348 349 348 347 347 347 347 347 346 345 346 347 347 347 350 350
294 293 292 286 286 297 307 309 313 316 314 314 314 311 315 316 316 316 313 314 316 317 318 320 321 322 324 326 326 328 329 330 329 329 329 330 331 331 333 333 332 335 336 335 335 337 344 344 342 342 341 343 342 342 344 344 342 341 341 343 343 345 346 346 348 350 352 352 351 349 348 347 347 347 347 346 346 346 346 344 344 346 345 346 349 349 349
290 290 289 290 299 301 304 306 309 310 305 309 307 301 308 317 318 317 315 314 315 317 318 319 320 321 322 318 321 332 331 330 332 332 332 334 334 334 335 336 334 336 338 338 339 340 341 342 341 339 341 343 341 341 341 343 343 343 340 340 341 343 346 346 348 348 351 351 350 348 345 342 342 344 344 345 346 347 344 343 343 344 345 346 347 347 348
293 287 287 291 287 287 295 304 312 313 313 314 313 311 306 315 319 320 317 315 315 316 318 319 320 320 313 310 314 326 333 333 332 333 333 335 336 336 336 336 336 337 337 339 341 339 341 340 339 340 342 341 340 339 339 339 340 339 339 337 338 341 342 345 347 345 344 344 343 343 344 344 345 345 347 347 347 349 343 341 340 340 340 342 343 344 345
292 290 286 285 286 290 297 305 313 315 315 318 316 306 300 310 317 320 318 316 317 317 317 317 317 311 308 309 313 323 331 332 333 331 332 333 334 335 335 334 334 336 337 340 341 342 341 339 340 341 340 339 337 336 337 336 337 335 336 338 340 340 341 342 339 339 341 343 344 344 342 343 346 346 348 347 347 346 343 342 341 341 344 342 342 343 344
293 290 288 287 295 295 307 312 314 315 316 315 305 293 293 309 318 320 319 318 317 317 317 316 315 309 307 309 316 328 331 332 334 333 332 332 333 333 335 336 335 336 337 337 337 338 339 339 341 340 339 338 338 337 335 335 334 334 337 338 341 342 342 342 340 340 342 345 345 342 341 341 342 344 348 347 345 345 343 343 344 343 345 343 341 341 341
294 296 290 296 299 309 313 312 315 318 318 305 294 288 297 315 319 320 319 318 318 317 317 316 311 312 313 318 325 331 331 331 332 333 333 332 333 333 334 335 338 335 335 335 335 335 337 342 341 340 339 337 336 337 336 335 336 336 337 339 342 342 343 343 340 343 345 344 342 341 340 339 343 347 345 343 343 345 345 344 343 343 343 342 338 334 332
292 290 289 292 297 306 311 313 317 319 308 294 292 303 315 318 320 321 320 319 318 320 319 316 314 318 325 330 330 329 329 329 330 331 331 331 332 333 336 337 335 333 334 335 335 336 338 340 343 341 339 337 336 335 335 335 337 339 341 342 342 343 344 343 343 342 342 343 343 343 343 343 342 341 340 341 342 343 343 342 341 340 340 340 332 328 326
294 294 291 287 287 303 314 316 314 315 301 299 306 314 320 324 322 321 319 320 321 322 319 320 321 323 326 328 328 329 329 329 328 328 329 329 329 330 331 332 335 334 333 333 334 335 337 338 340 341 341 339 339 339 337 339 341 342 341 340 342 342 342 342 342 342 343 344 344 344 343 343 341 339 340 341 341 340 337 338 338 338 339 334 327 323 322
290 291 290 289 296 301 317 314 305 312 313 314 316 318 318 321 322 321 319 319 322 323 322 321 321 323 325 326 327 326 326 327 327 327 328 328 330 331 332 333 333 334 333 333 334 335 336 337 338 339 339 338 339 338 338 341 343 344 342 341 341 340 340 339 340 341 343 344 343 343 342 341 340 339 338 337 336 337 338 337 336 336 335 330 325 322 320
296 294 295 303 307 315 320 317 315 317 321 322 321 320 321 321 321 321 322 322 323 324 323 322 323 323 324 324 325 324 324 324 325 326 327 329 329 330 331 332 333 332 332 332 333 334 335 336 336 336 337 336 336 335 338 341 339 338 337 337 336 335 334 335 335 334 335 338 341 341 340 339 337 336 334 333 331 332 334 334 334 334 332 328 325 323 321
310 310 309 313 313 315 316 318 319 320 320 321 322 322 319 320 321 323 322 323 324 324 324 323 323 324 323 323 323 324 325 326 326 328 327 326 327 328 329 329 331 332 332 332 332 332 333 335 335 336 336 336 334 335 338 339 338 336 335 334 333 332 331 331 331 331 330 330 332 335 337 338 338 336 335 334 332 331 331 330 328 326 326 324 323 322 321
296 296 309 311 312 314 316 318 320 322 323 320 321 321 320 321 323 323 324 325 324 325 324 323 324 324 324 323 323 323 323 325 326 326 326 327 327 327 328 329 331 331 331 330 330 331 330 333 334 335 334 335 335 336 336 336 335 335 334 332 332 330 329 329 329 329 327 325 323 324 326 328 330 330 330 330 331 332 330 329 328 327 326 326 324 322 321
296 297 309 313 315 315 317 317 316 317 319 321 320 320 322 323 324 325 325 325 325 325 324 324 324 323 324 323 322 321 323 324 326 326 325 326 328 330 331 331 331 330 330 329 329 330 330 331 332 333 333 333 334 334 335 336 334 333 332 331 329 328 328 328 328 327 327 327 320 315 315 316 317 320 323 324 321 320 321 326 328 327 327 326 324 323 321
310 312 314 314 315 315 316 318 317 317 318 317 320 321 323 325 324 324 324 324 325 325 324 325 324 323 322 323 323 323 323 325 326 326 327 327 328 329 330 331 331 329 329 329 329 329 329 330 330 330 331 332 333 332 332 333 332 331 331 331 329 328 328 328 327 326 323 321 319 315 313 312 309 308 309 314 320 319 317 316 324 327 325 324 324 323 323
303 305 310 311 306 304 311 316 319 319 319 320 320 320 322 323 322 322 323 323 325 325 325 325 325 323 322 323 323 324 325 325 326 326 326 327 328 327 327 327 327 328 328 328 329 329 328 328 328 329 329 330 331 332 332 331 331 330 329 328 327 327 327 327 326 326 324 323 322 321 319 317 315 313 309 300 304 316 317 315 308 309 315 323 324 321 315
302 308 314 314 308 308 312 316 319 320 321 321 320 319 320 320 321 322 322 321 321 322 324 326 325 324 324 323 324 323 325 325 325 324 323 323 324 324 324 322 321 322 324 327 327 326 325 326 326 327 327 328 329 331 331 331 330 328 327 327 327 327 328 327 327 326 325 324 323 322 321 319 318 317 315 312 299 298 304 306 302 297 297 302 310 318 324
310 314 316 315 313 312 314 318 319 318 321 321 321 321 321 321 322 322 321 321 320 319 320 323 325 324 323 323 325 324 324 325 322 321 321 322 322 323 324 322 321 320 321 323 324 324 323 323 323 324 326 326 328 329 329 329 329 328 327 326 325 325 326 327 328 327 325 326 325 323 321 320 318 317 315 314 313 303 298 298 298 295 295 295 296 300 307
311 316 316 316 314 315 317 319 318 319 322 323 322 322 321 322 323 323 322 321 319 318 317 317 318 320 320 321 322 322 321 320 321 322 323 324 323 322 322 321 319 319 318 319 320 321 322 323 323 325 324 325 327 329 329 330 329 328 328 327 326 326 328 330 329 330 327 326 326 324 322 321 320 319 317 316 313 311 309 300 295 294 294 294 294 294 294
318 318 319 318 318 318 320 322 323 322 323 325 323 323 327 328 325 324 322 321 317 316 316 315 316 317 319 319 319 319 319 321 325 326 321 321 322 322 322 322 323 323 321 321 322 323 322 321 319 319 319 321 324 327 329 328 328 326 326 327 328 328 327 328 327 325 325 326 325 323 324 321 321 320 320 318 315 313 312 311 311 305 299 294 293 294 292
321 322 321 319 318 318 320 321 319 322 323 325 325 324 325 327 332 324 323 323 319 316 316 316 316 318 319 320 321 320 321 323 324 321 320 320 320 321 323 326 327 326 326 326 328 331 331 327 325 323 322 322 324 326 326 326 325 324 324 325 327 336 337 334 325 326 327 326 325 323 323 324 324 324 323 321 321 319 317 316 314 311 310 310 300 294 299
321 321 320 314 315 318 321 321 321 323 324 324 323 323 323 322 321 319 317 316 316 315 316 318 318 317 318 317 319 320 322 321 322 323 323 324 324 325 326 326 327 327 326 326 325 326 326 324 324 324 324 326 327 328 329 328 326 326 325 326 326 324 325 328 326 325 325 325 323 325 325 324 326 324 326 326 325 324 321 323 319 315 313 309 309 304 294
320 320 320 319 321 322 323 323 323 322 322 322 323 322 321 319 317 315 315 315 316 316 316 316 318 318 317 319 322 322 323 323 323 323 323 324 325 326 326 327 327 327 326 325 323 322 321 319 317 316 316 320 326 327 328 327 326 327 327 326 325 324 324 324 323 323 323 321 321 325 330 330 328 326 328 329 330 327 324 321 319 317 311 310 310 311 308
320 320 321 321 323 324 323 321 321 321 322 321 321 320 320 318 316 315 316 316 317 316 316 316 316 318 322 322 323 324 324 323 323 324 324 325 325 326 326 326 326 325 324 323 322 321 319 317 315 314 314 314 317 322 325 323 323 323 322 321 320 319 319 322 323 323 321 320 323 330 328 326 324 327 330 328 331 328 325 322 321 316 311 311 318 309 309
319 322 323 323 324 324 322 320 319 321 321 320 320 319 318 317 315 315 315 316 317 317 318 319 321 322 323 323 324 325 325 325 325 325 324 324 325 325 324 324 322 321 321 321 321 321 319 317 315 314 314 313 314 315 320 323 318 318 317 317 319 324 327 328 327 324 322 323 323 321 322 322 322 327 327 323 327 324 321 321 320 318 315 313 313 313 312
322 322 322 322 323 322 320 318 319 320 320 320 319 318 317 317 316 316 317 317 318 320 321 322 322 323 324 325 325 325 325 325 325 325 325 325 325 324 324 325 327 327 322 320 320 320 318 317 316 315 314 313 313 312 313 314 316 315 315 323 319 320 322 325 326 331 333 331 327 324 328 324 321 323 327 326 321 320 319 319 318 317 316 314 314 315 314
320 318 317 318 319 320 319 318 319 319 320 320 319 318 319 320 320 320 320 321 321 322 322 322 323 324 324 324 324 324 324 324 324 324 323 323 323 323 322 321 319 318 317 316 316 315 316 316 316 315 313 313 313 312 312 311 311 312 312 313 313 318 332 326 325 326 330 327 322 321 321 322 321 322 325 325 325 325 320 318 318 320 319 317 314 315 314
321 321 321 322 321 320 319 319 320 320 320 320 320 320 321 321 322 323 323 322 322 322 322 322 323 324 324 324 324 323 323 322 321 320 320 320 319 319 320 319 317 316 314 313 312 313 314 315 314 313 313 313 313 314 313 312 311 311 313 313 314 316 320 323 326 326 324 325 324 325 323 322 319 320 324 323 320 320 322 322 325 324 319 318 317 318 314
324 324 325 324 324 324 324 322 321 321 321 320 320 320 322 322 322 323 324 323 321 321 322 323 323 324 324 323 322 322 321 321 320 319 318 318 318 318 318 317 315 313 311 311 311 312 313 314 313 312 312 313 313 315 315 314 313 313 315 315 318 317 318 320 322 323 324 324 322 317 318 318 318 327 326 321 319 319 321 322 320 319 318 318 318 318 313
322 322 323 323 323 323 323 323 323 323 322 322 321 321 321 322 323 324 324 322 323 324 323 323 323 323 322 321 320 320 319 319 319 319 318 318 318 317 317 315 312 309 308 308 310 311 315 318 327 324 315 315 312 313 318 318 313 312 315 314 315 316 319 320 319 316 318 314 317 318 316 321 321 320 321 316 315 316 315 315 316 317 316 317 318 315 310
323 323 322 322 323 323 323 323 324 323 323 322 322 321 322 322 323 324 324 323 324 324 324 324 323 321 321 321 321 320 320 319 319 318 317 317 317 317 315 314 312 310 309 307 309 313 316 318 323 323 315 311 311 311 319 323 316 311 310 311 312 313 312 312 314 312 312 316 314 314 315 313 309 310 315 310 311 312 313 311 315 315 314 316 316 316 312
323 323 322 322 323 324 323 324 325 325 324 322 322 323 323 323 323 323 323 324 324 324 324 323 322 322 321 320 320 319 318 318 318 317 317 316 316 315 314 313 311 309 307 307 309 312 315 321 323 317 310 309 308 310 317 322 321 310 308 313 312 312 313 311 311 313 312 311 315 309 310 309 308 307 309 308 309 312 314 312 312 311 310 310 311 314 315
321 322 322 322 323 324 324 324 325 325 324 323 322 321 323 324 324 324 323 323 324 325 324 322 321 320 320 319 318 317 317 316 316 315 313 313 314 313 311 313 312 310 310 310 310 314 319 317 313 310 309 307 307 307 316 324 320 308 308 310 311 312 311 312 311 312 312 313 311 310 309 310 310 309 308 308 309 311 314 314 310 310 308 307 307 307 309
320 321 321 321 321 322 323 323 324 324 325 325 323 322 323 323 323 323 322 322 323 324 323 321 319 318 317 317 316 316 315 315 314 313 313 312 310 309 308 309 310 310 313 321 312 315 321 321 313 308 308 307 307 307 313 319 317 309 308 309 310 311 311 312 310 309 309 309 310 313 308 309 310 310 309 308 308 308 307 308 307 307 307 307 307 309 311
320 319 319 320 321 322 323 323 323 324 324 324 324 324 324 324 323 322 322 322 323 322 320 319 317 316 316 316 315 314 313 313 313 313 312 309 307 307 308 307 308 311 313 313 316 319 318 314 310 307 307 307 306 318 310 318 308 305 308 310 309 309 310 310 310 309 308 309 310 307 306 307 307 307 308 307 307 306 306 307 307 307 307 307 307 308 310
320 320 320 320 321 322 323 324 324 324 323 324 324 324 324 324 323 322 322 323 321 318 317 316 320 316 314 314 313 313 312 312 313 313 311 310 307 306 307 307 310 309 323 323 321 317 313 312 312 316 306 307 309 321 319 312 305 305 306 308 310 311 310 310 310 308 309 307 306 305 307 306 305 305 306 306 305 306 306 307 307 307 307 308 308 307 308
320 320 320 320 321 322 323 323 323 324 323 323 323 324 324 323 323 322 322 321 319 315 315 315 319 319 316 313 312 311 311 312 313 312 311 309 309 310 310 309 309 318 323 314 311 308 308 306 307 308 315 314 314 320 319 307 306 306 307 309 311 309 309 308 307 307 306 305 304 304 304 305 304 304 305 304 304 305 306 306 306 307 307 307 308 308 308
321 321 320 320 319 320 321 322 321 322 321 319 320 321 322 323 322 321 320 318 315 315 315 315 315 313 313 312 311 310 310 311 311 311 311 309 309 310 310 310 311 320 320 312 309 308 307 307 306 313 319 318 319 320 309 305 305 306 306 307 307 307 307 306 306 306 306 307 306 304 305 307 305 305 306 305 305 305 306 306 306 306 307 307 307 308 308
321 320 320 320 319 319 319 321 321 321 319 319 319 319 318 319 318 320 319 316 315 315 316 315 313 313 312 312 312 312 311 311 312 311 310 308 307 306 311 320 318 316 316 316 309 308 307 306 312 318 319 319 318 316 305 305 306 306 306 306 306 306 306 306 306 306 306 306 306 306 307 305 305 305 306 307 308 306 305 305 306 306 307 307 307 307 307
320 320 320 321 319 318 319 319 319 320 319 319 318 318 318 317 317 317 317 316 316 316 316 315 314 313 313 312 312 311 310 310 311 311 312 311 309 309 314 317 313 316 316 314 306 306 306 318 318 318 319 318 315 306 305 307 306 304 304 304 305 306 305 305 305 305 306 306 306 306 305 304 305 305 305 305 305 306 307 308 307 306 306 306 306 306 306
319 318 318 319 318 318 318 318 318 317 317 317 315 315 317 317 317 316 316 316 317 317 317 316 315 314 314 314 313 311 310 309 309 310 311 312 315 316 317 318 319 318 313 307 306 307 308 311 317 319 318 316 312 304 304 304 303 303 303 303 304 304 305 304 304 304 305 305 307 308 311 307 305 304 307 307 305 306 305 306 305 305 306 306 306 306 305
318 318 317 318 318 319 319 318 316 315 316 317 317 316 317 318 317 317 316 316 316 317 317 316 315 315 315 314 314 313 313 311 309 306 309 312 312 313 314 313 313 316 313 314 313 315 318 318 319 317 316 314 306 303 304 303 303 303 302 303 302 302 301 302 302 304 303 306 304 303 303 304 303 304 305 304 304 304 304 305 305 304 304 304 304 304 303
318 318 318 318 318 318 318 317 317 316 317 317 316 316 317 317 316 316 317 316 316 316 316 316 315 315 315 315 313 312 313 313 310 307 309 311 310 310 312 316 318 317 312 307 308 308 316 318 317 316 315 310 302 302 302 303 304 304 303 302 303 303 302 302 301 302 302 304 304 304 303 304 303 303 303 304 304 305 305 304 304 305 304 304 304 305 304
315 316 315 315 316 317 318 317 317 317 317 316 316 317 317 317 315 315 316 316 316 316 315 314 313 314 313 313 313 313 312 312 312 311 310 310 310 311 312 311 311 314 312 306 307 309 318 318 317 315 309 302 303 303 303 303 304 305 304 305 304 302 304 303 308 308 304 304 303 304 303 303 304 306 306 304 304 305 304 304 306 309 310 307 304 303 304
316 316 314 314 313 314 315 315 318 318 317 316 317 318 317 316 316 316 316 315 315 314 313 312 312 313 312 311 312 313 312 312 312 314 310 310 310 313 312 310 311 313 311 309 307 306 305 304 306 310 307 305 303 304 304 304 304 306 307 302 304 304 303 303 303 302 302 303 302 302 302 303 302 302 304 305 305 305 304 305 304 303 302 302 302 303 301
315 315 315 316 316 316 317 318 318 318 318 318 318 317 317 317 316 316 315 320 315 314 313 312 310 311 312 311 311 311 311 311 312 311 313 311 310 308 311 313 308 310 308 304 303 303 303 306 313 314 310 303 303 303 310 312 304 303 305 309 308 304 306 305 305 304 304 304 303 302 303 302 303 304 304 304 304 304 304 303 303 303 303 302 303 302 301
Wind_Speed
6 6 6 4 3 3 3 3 3 4 4 3 1 1 3 2 2 3 4 5 4 1 1 2 4 4 4 5 6 6 3 4 6 8 9 8 8 5 5 5 4 9 6 2 9 4 10 12 12 14 10 9 9 9 11 11 11 12 12 10 9 11 11 12 12 12 10 9 9 10 11 10 10 10 9 8 8 9 9 9 8 8 9 10 9 7 4
1 3 4 3 5 2 2 3 5 6 3 3 3 3 2 2 2 2 4 6 5 0 1 2 4 5 7 5 5 6 8 7 7 8 8 8 8 7 7 5 5 3 5 4 3 5 11 2 14 13 12 12 12 13 12 11 12 12 12 11 9 10 12 13 12 11 10 8 9 10 11 11 11 9 8 8 8 8 9 8 6 5 6 6 8 8 7
1 4 4 4 6 4 4 5 4 4 4 3 4 1 0 2 1 2 2 2 1 1 1 3 3 5 5 7 9 7 5 5 6 8 8 7 7 5 6 7 5 7 8 5 4 9 9 13 10 3 13 13 12 13 13 12 12 12 12 12 11 11 12 13 11 10 10 9 9 9 10 12 9 7 7 7 6 6 6 6 7 6 6 7 6 6 7
2 2 5 7 5 4 4 3 4 5 4 1 1 2 3 2 0 2 1 2 2 2 1 3 4 6 7 8 5 5 4 4 4 6 7 9 9 7 6 4 4 4 3 6 6 7 8 3 6 12 10 3 13 14 13 14 13 12 12 11 12 12 11 11 11 12 10 9 9 9 8 9 9 8 7 7 7 7 6 7 6 6 7 7 6 6 6
2 5 5 5 1 1 2 6 4 1 1 5 5 2 0 1 1 1 0 2 2 3 0 3 4 4 4 6 3 0 1 1 2 4 6 6 6 6 2 2 0 1 5 6 2 3 7 8 7 2 4 11 11 2 8 11 10 11 12 11 11 11 11 11 11 11 10 10 9 8 8 9 8 8 7 6 7 7 8 7 6 7 7 6 6 6 6
2 4 4 1 2 2 2 3 4 1 2 3 4 1 1 2 1 2 4 4 2 3 4 4 3 3 1 1 2 3 3 2 3 5 5 4 4 5 3 1 2 2 1 1 5 1 1 2 3 6 8 5 5 9 12 6 4 9 9 9 10 11 11 11 12 11 10 10 9 8 6 6 7 8 7 7 6 5 6 6 7 6 6 6 5 5 6
2 1 4 2 0 3 4 1 5 8 9 9 3 2 0 2 5 5 1 0 2 3 2 3 3 2 1 1 2 3 4 3 3 5 4 3 5 6 5 3 4 4 3 1 2 2 2 0 1 3 3 5 7 3 1 6 9 3 4 8 8 9 10 10 10 10 10 9 8 7 7 7 7 7 7 6 5 5 6 7 7 8 8 7 6 5 5
2 3 1 0 3 4 3 4 5 5 10 8 1 3 3 2 3 4 3 2 3 3 2 2 2 4 3 3 2 0 3 3 3 4 4 3 5 5 5 2 1 3 3 2 2 2 0 2 2 3 4 4 3 5 8 9 6 8 6 5 6 7 8 9 10 10 10 9 8 8 8 7 7 7 6 6 6 4 4 3 2 3 3 4 6 5 4
3 3 5 4 2 2 2 3 1 3 5 8 6 4 2 3 1 4 3 3 2 3 3 3 3 2 1 3 3 2 2 3 3 4 5 2 5 4 5 3 2 2 3 2 1 1 2 4 3 3 4 5 4 4 3 4 7 5 3 4 3 4 5 5 5 5 5 7 6 5 5 8 8 6 4 3 4 3 5 4 4 4 5 4 4 5 5
3 4 1 0 1 1 3 4 2 3 5 6 6 7 1 3 2 3 5 6 3 3 2 4 1 2 1 1 1 0 2 2 1 5 7 6 6 5 4 2 2 3 3 2 0 1 5 5 3 3 3 5 4 4 1 1 3 6 6 6 8 7 3 1 4 6 8 9 9 9 9 9 5 4 5 4 3 3 5 4 3 3 2 2 1 1 2
2 2 2 2 2 3 3 3 4 6 5 1 4 5 2 3 1 3 4 4 3 5 6 4 1 2 1 1 1 2 0 2 1 6 6 6 5 4 3 4 6 5 5 5 5 4 5 6 4 5 6 5 4 2 0 1 3 6 4 2 1 2 5 5 6 7 6 8 8 9 10 9 9 6 3 3 2 3 4 4 4 4 3 2 2 1 1
0 2 2 1 1 1 1 4 4 6 8 2 3 0 4 3 3 4 4 4 4 5 4 3 1 1 1 1 1 2 2 1 1 3 6 6 5 4 4 4 5 5 5 7 8 6 4 5 4 5 5 5 4 3 1 2 2 4 4 3 6 6 2 2 2 2 1 3 6 7 6 4 3 2 3 3 2 2 2 2 3 2 2 3 3 3 4
1 2 0 1 1 2 3 3 6 7 3 3 3 4 3 2 4 4 3 5 4 3 2 2 2 1 3 2 0 1 2 3 5 6 6 6 5 4 4 5 6 5 6 6 6 6 5 2 3 2 3 4 4 5 4 4 3 2 3 3 5 7 7 5 7 6 6 6 7 6 4 1 2 2 2 3 4 3 3 3 3 3 4 4 5 5 5
0 1 3 2 2 4 3 5 3 4 2 1 4 3 1 4 3 3 4 6 4 5 4 2 2 1 1 4 4 6 6 5 4 5 5 5 5 4 4 7 6 5 6 7 7 8 6 6 1 1 1 1 2 2 2 2 2 1 2 3 4 4 8 7 6 5 8 8 7 7 5 5 4 3 2 3 3 3 3 4 4 3 1 4 6 6 5
2 3 3 1 1 2 2 4 4 3 1 3 3 2 1 4 4 4 2 4 4 7 5 4 4 4 6 5 5 6 5 4 4 3 4 5 5 5 4 5 6 6 6 7 8 7 7 7 7 4 4 3 3 3 4 4 3 4 5 5 4 5 6 7 5 5 8 9 6 5 4 5 6 5 3 3 1 0 2 4 3 3 3 6 5 6 6
1 1 1 2 4 2 1 2 2 1 2 4 3 5 4 3 5 5 5 3 5 7 9 7 5 5 7 5 5 4 3 3 3 3 3 4 4 5 6 5 5 6 7 7 8 8 7 7 7 7 6 6 5 6 6 5 6 7 7 6 7 9 8 7 7 8 6 7 7 6 5 5 5 6 5 4 2 3 5 5 4 3 1 6 3 3 7
1 2 3 2 2 2 0 3 2 3 1 3 5 6 7 6 5 3 5 6 6 7 8 7 7 6 4 5 4 5 4 3 3 4 3 2 2 3 5 6 5 5 8 8 8 9 8 9 8 7 6 7 7 6 4 5 7 8 8 9 9 9 9 9 8 8 8 7 7 6 5 5 6 5 4 2 2 2 1 1 3 3 5 7 4 3 3
0 2 2 4 3 3 1 1 1 4 1 0 3 7 5 4 3 5 5 5 7 6 5 8 5 6 7 6 4 4 4 4 3 2 2 3 3 3 3 3 4 4 6 8 9 10 9 7 7 6 7 7 8 4 5 6 6 7 8 9 9 8 8 7 7 8 9 9 9 8 7 5 5 4 4 4 4 5 5 6 6 8 6 5 5 2 4
4 0 1 4 6 2 2 3 2 2 1 1 1 3 1 0 3 4 4 8 7 7 6 6 9 8 7 6 4 3 4 4 4 3 4 3 3 4 5 3 3 5 5 7 8 9 8 6 6 6 7 6 6 6 7 6 7 7 9 9 8 8 8 8 8 8 9 7 7 7 6 6 6 6 6 5 6 6 5 5 6 6 6 6 6 4 5
1 3 4 3 2 1 3 4 4 2 1 1 3 3 3 3 3 4 5 7 7 5 6 7 9 7 6 7 5 3 3 3 3 4 3 4 5 5 4 4 4 5 6 6 7 7 7 5 5 6 6 7 6 6 6 6 7 8 8 8 7 7 8 7 7 7 7 11 10 7 6 6 6 6 6 6 7 6 5 5 5 5 5 4 4 5 6
1 3 4 5 4 2 2 2 2 3 4 3 4 2 4 4 5 5 5 4 5 5 8 9 9 8 5 6 5 4 3 3 4 4 3 3 4 3 3 3 3 4 4 7 8 8 7 6 6 6 6 6 6 7 7 6 6 8 8 9 8 7 7 7 8 6 6 6 6 6 6 6 7 6 6 5 6 6 4 2 3 4 5 5 5 4 5
2 5 6 6 4 3 6 6 6 4 2 4 5 3 4 4 5 5 6 4 3 5 9 11 10 9 6 5 5 6 3 3 3 3 2 3 3 4 4 5 6 6 5 5 6 6 4 5 6 6 5 5 6 6 6 5 6 9 8 7 7 6 6 7 7 6 6 6 6 6 7 7 8 8 11 11 8 5 5 7 10 8 6 4 4 5 7
6 7 8 9 4 3 6 7 5 3 4 5 6 4 4 3 3 4 7 5 4 5 6 9 10 9 8 7 5 4 4 3 3 4 4 4 4 4 5 7 7 7 6 7 7 6 5 4 4 4 4 3 3 3 4 4 6 7 6 6 6 6 7 6 6 6 6 6 6 7 7 7 7 7 6 7 12 12 9 8 9 10 10 10 9 5 5
1 3 9 8 4 5 4 5 4 3 4 5 5 4 4 3 3 4 4 4 7 6 7 6 9 10 8 7 7 6 4 5 5 4 4 4 4 4 4 5 6 6 6 6 6 5 4 4 4 4 5 4 4 4 4 5 5 6 6 7 7 6 6 6 7 6 5 6 6 6 6 5 6 6 6 6 7 11 13 11 11 11 11 11 11 11 9
3 3 5 4 4 3 2 5 3 3 3 5 5 5 6 5 3 4 5 4 5 10 8 7 5 7 10 7 6 7 5 6 6 6 5 4 4 4 4 4 6 6 5 4 4 4 4 4 4 4 5 4 4 4 4 4 4 6 6 7 7 6 6 6 6 6 5 5 5 6 6 6 5 5 6 6 6 5 8 10 11 11 11 10 10 10 9
8 6 4 4 4 4 4 3 0 2 4 5 3 3 5 6 5 4 4 5 6 7 9 8 7 5 7 8 7 7 7 6 6 5 4 4 4 4 4 4 3 3 4 4 5 5 5 4 4 4 4 4 4 4 4 4 4 4 4 4 5 5 5 5 5 5 5 5 5 5 5 4 5 5 4 5 5 5 5 4 5 7 8 9 8 9 10
8 10 11 8 5 2 3 7 5 4 3 4 5 5 5 5 7 5 3 4 7 8 9 8 7 6 5 6 7 6 6 5 5 5 5 5 5 4 4 5 7 6 6 7 6 7 8 6 6 5 4 4 4 4 4 4 4 4 4 4 3 6 9 5 4 5 5 4 4 4 3 3 3 4 5 4 4 5 5 5 4 3 1 2 4 4 2
9 8 8 7 7 8 7 5 3 5 4 5 5 5 5 5 6 7 7 8 6 5 6 7 9 7 7 4 6 7 7 8 7 5 6 5 4 4 5 7 8 8 8 8 7 7 7 7 7 7 7 5 3 3 3 4 4 4 5 5 5 5 4 5 4 4 4 3 4 5 5 5 4 4 4 4 3 2 2 2 4 4 2 1 1 0 4
7 6 1 2 7 7 4 3 4 4 4 3 4 4 6 7 6 8 8 9 9 8 7 6 7 7 6 6 8 8 8 8 8 7 6 5 5 6 6 7 7 8 8 8 7 7 8 8 8 9 7 6 5 4 4 5 5 5 4 4 5 4 4 3 3 4 4 4 4 4 4 4 5 4 5 5 4 4 3 3 3 2 4 3 2 1 2
6 3 4 6 7 8 8 6 5 4 5 4 6 4 5 8 8 7 8 9 9 10 8 7 7 7 7 7 7 7 9 8 7 6 5 5 5 6 7 7 8 7 8 8 7 6 8 7 8 8 6 6 6 5 5 5 5 5 4 4 4 4 3 2 3 3 3 3 3 4 3 3 2 2 3 4 5 5 5 4 3 3 3 2 2 3 5
4 5 8 8 8 8 9 7 5 5 5 4 5 6 4 7 8 8 8 7 8 8 6 8 8 8 8 8 6 7 8 8 7 7 5 5 5 5 4 5 8 7 7 5 5 6 7 7 7 6 4 5 7 7 6 5 4 4 3 3 3 5 6 6 4 3 3 2 3 3 4 3 2 2 3 3 5 5 5 4 3 3 3 2 2 2 3
8 8 9 8 8 7 5 5 6 6 5 4 5 6 7 9 9 9 7 8 8 9 8 9 10 10 8 7 8 8 8 8 7 6 6 5 4 4 4 6 7 6 5 4 5 5 6 6 7 4 4 6 6 7 6 6 6 6 5 5 5 3 3 6 4 3 2 3 3 4 4 5 4 4 3 3 3 3 3 5 5 3 3 4 3 4 2
11 7 5 5 5 6 6 5 8 8 7 6 6 5 5 6 7 7 7 8 8 7 9 8 8 9 8 7 8 8 8 7 7 7 6 5 5 5 5 6 7 7 6 4 4 4 6 7 4 3 5 5 6 6 6 5 5 5 5 4 5 3 3 3 4 4 4 4 5 5 5 4 3 5 5 3 3 3 4 3 3 3 3 4 5 4 5
16 15 15 15 14 12 12 10 7 8 5 4 4 5 6 6 7 8 8 7 8 9 9 9 8 8 8 8 8 8 9 8 8 6 5 5 6 6 6 7 6 6 5 4 4 5 5 4 4 5 5 6 6 5 5 5 5 5 4 5 5 5 5 4 2 2 4 4 4 3 4 3 3 3 3 3 3 4 4 3 3 3 3 4 5 5 5
14 12 14 14 12 12 12 11 10 9 9 8 6 5 6 6 7 8 8 9 10 8 8 9 8 7 8 8 8 8 8 9 8 8 7 6 6 7 7 7 6 6 6 5 4 4 4 4 4 5 6 6 6 5 5 5 5 5 5 5 4 4 4 4 5 5 3 3 3 4 4 4 4 4 3 3 3 2 2 1 2 2 3 2 1 1 1
8 8 8 9 9 10 10 9 9 10 10 9 8 8 8 8 8 9 9 7 6 8 9 9 9 8 8 8 8 8 7 7 8 8 8 7 7 6 7 7 7 7 6 5 3 3 4 4 9 10 6 5 5 5 5 5 4 5 4 5 4 4 4 4 4 4 5 6 5 5 5 6 5 4 4 4 4 4 4 3 2 1 2 2 1 2 3
10 12 11 10 10 11 11 10 9 9 9 9 8 8 8 8 9 7 7 8 8 9 9 9 8 9 9 8 8 7 7 8 8 8 8 7 6 7 7 6 6 6 5 6 1 1 4 4 10 11 7 5 4 4 5 10 6 5 4 5 6 6 6 7 6 6 6 4 4 4 5 6 6 6 4 4 5 4 4 5 3 1 1 0 0 2 3
11 12 12 11 11 12 12 11 10 10 9 7 6 7 9 9 7 8 9 9 9 9 8 9 10 8 7 5 6 8 7 6 7 7 6 6 6 7 6 7 6 5 6 5 2 2 4 7 10 6 4 4 4 3 5 11 8 6 5 4 4 6 6 6 6 6 6 6 5 6 7 7 7 7 7 6 6 5 6 6 7 7 7 6 4 1 0
7 8 10 10 10 10 9 9 10 9 11 12 9 7 7 9 8 8 8 8 8 8 8 7 7 8 7 8 7 6 6 6 7 7 6 5 5 6 6 7 8 7 6 4 3 5 7 6 4 4 3 3 3 4 5 8 9 6 5 4 4 6 5 6 6 6 5 5 7 7 7 7 6 6 7 6 7 7 6 7 7 6 6 6 5 6 3
9 9 10 9 9 9 9 10 10 11 11 11 11 10 9 9 9 9 8 8 7 8 8 7 8 8 7 8 8 7 6 6 6 7 7 7 7 7 5 3 4 4 4 6 5 6 8 10 6 4 2 2 3 4 4 5 6 5 6 5 5 7 6 6 6 6 6 6 7 7 7 6 6 6 5 5 6 6 6 6 6 6 6 6 7 6 7
9 8 7 9 10 10 10 10 10 10 10 10 10 9 10 11 10 9 9 9 8 7 8 9 9 8 8 9 9 8 6 6 6 7 7 8 7 7 8 7 4 2 4 6 6 6 7 6 4 4 1 1 2 4 4 5 4 5 4 4 6 6 6 6 6 6 6 6 6 6 6 6 6 6 5 5 5 6 6 6 6 6 6 6 6 6 6
9 8 8 8 8 10 11 10 9 8 8 9 10 11 11 11 12 12 9 8 8 7 7 7 9 10 8 7 7 7 6 5 6 6 7 9 8 8 8 6 4 4 9 10 9 7 5 4 3 4 2 2 2 5 5 3 4 4 4 3 4 5 5 5 5 4 5 5 5 5 4 5 6 5 4 5 5 5 6 6 6 6 6 6 6 5 6
8 10 9 9 9 9 10 10 11 11 9 8 9 10 10 10 10 8 8 8 8 8 8 7 9 10 9 9 8 8 6 6 7 5 4 3 6 7 9 7 4 6 14 7 7 6 6 3 4 1 2 1 1 4 5 5 6 6 7 6 6 6 6 6 5 5 6 6 6 4 4 5 6 6 6 6 6 6 6 6 6 6 6 6 6 6 6
5 6 6 7 6 6 8 9 7 6 8 5 4 2 2 7 9 10 10 9 9 9 10 10 10 10 10 9 9 8 7 7 7 6 7 5 3 0 3 7 5 9 14 7 6 6 6 3 1 2 3 2 3 5 4 6 6 7 7 6 6 6 6 6 6 5 6 5 5 5 4 5 6 6 6 6 6 6 6 6 6 6 6 6 6 6 6
5 6 7 7 8 8 8 10 13 13 10 10 10 10 5 5 2 8 10 11 11 11 10 11 11 11 10 9 9 9 8 8 8 8 9 6 7 4 2 6 8 7 9 10 6 5 5 3 3 5 3 3 5 6 6 7 7 6 6 6 6 6 5 5 5 4 4 5 5 5 5 6 6 6 6 6 6 6 6 6 6 5 6 6 6 6 6
5 7 7 9 10 9 8 8 7 9 11 12 10 9 11 7 4 5 9 12 12 12 12 12 12 11 11 9 7 6 5 5 4 4 6 9 9 6 5 7 6 6 11 11 5 6 5 7 7 5 5 8 8 7 7 6 6 6 6 6 6 6 5 6 4 5 5 5 6 6 6 6 6 6 6 6 6 6 6 7 6 6 6 6 5 5 5
5 5 6 7 7 8 8 8 9 11 9 8 9 8 8 10 8 7 8 10 11 10 9 10 10 9 10 11 11 9 8 6 3 1 4 4 6 8 8 11 12 14 10 7 6 5 4 4 4 6 10 12 10 7 7 7 6 6 6 5 6 6 5 5 5 4 5 5 4 5 5 5 6 6 6 6 6 6 6 6 6 5 5 5 5 5 5
7 7 7 8 10 10 11 12 14 13 14 14 13 12 11 11 10 8 7 8 8 7 8 8 8 8 9 9 9 9 10 11 8 3 3 7 7 7 7 6 7 10 10 7 7 6 9 9 10 13 13 11 8 7 7 6 6 6 6 5 4 5 5 5 5 5 5 5 5 6 6 6 6 6 6 6 6 6 6 6 5 5 5 5 5 5 5
6 7 7 8 10 11 11 12 12 12 11 10 9 9 10 10 10 10 9 8 9 8 8 8 8 8 8 8 8 7 6 6 8 7 6 7 8 8 7 9 14 13 7 5 5 4 8 10 12 13 12 9 6 7 7 6 5 5 5 4 4 4 5 5 4 5 5 6 5 6 5 5 5 6 6 6 6 6 6 5 5 6 5 5 5 4 5
3 5 6 7 8 10 10 10 10 10 9 9 10 9 8 10 10 9 8 9 9 8 8 8 7 7 8 7 7 7 7 6 6 8 7 7 8 8 8 8 7 9 9 6 5 5 9 12 11 11 8 6 7 6 6 6 5 4 4 4 4 3 2 3 4 5 4 4 5 4 4 4 4 6 5 5 5 6 6 6 6 6 8 5 4 4 4
6 6 5 4 3 2 1 4 8 9 10 10 9 9 10 11 11 10 9 9 9 9 8 7 6 7 7 7 6 7 6 6 8 9 8 6 7 8 8 7 7 7 6 7 6 6 5 5 6 5 6 6 7 6 6 5 4 4 4 3 4 4 4 3 3 4 4 4 4 4 4 3 4 5 6 6 5 5 4 4 4 4 5 5 6 5 5
5 5 5 6 6 6 6 7 7 8 8 9 9 10 10 10 10 9 7 8 10 10 9 9 7 5 6 7 7 6 6 8 8 8 8 8 8 7 7 8 7 7 7 6 6 5 5 6 5 7 7 6 6 6 6 6 4 4 4 4 4 4 4 4 4 4 4 3 4 4 4 4 4 6 6 6 5 5 4 4 4 4 4 3 3 4 5
Wind_Direction
226 199 209 204 187 198 214 234 267 279 266 319 342 250 229 157 146 193 234 198 202 261 45 25 39 15 23 33 21 25 28 20 25 32 36 39 18 13 74 75 5 332 331 22 349 304 174 157 161 163 161 149 143 144 148 154 159 170 174 177 189 176 184 193 195 197 194 197 197 197 200 204 209 213 215 216 205 204 204 207 206 197 190 190 186 181 171
285 226 223 215 196 245 273 260 252 257 276 269 234 253 284 125 154 228 207 194 224 273 10 49 32 31 48 47 39 33 33 42 44 47 48 46 59 23 11 28 40 32 334 2 53 359 338 211 162 161 160 153 153 151 156 160 165 173 170 179 187 190 185 193 192 192 191 191 194 196 199 201 207 206 204 208 205 203 204 199 182 172 170 169 169 171 165
297 263 222 181 198 202 268 279 264 248 232 266 306 260 340 85 45 40 102 136 226 309 77 76 47 52 51 47 36 27 9 1 41 56 54 56 57 73 36 27 32 19 360 351 40 51 24 357 328 198 161 155 157 155 159 166 169 174 175 179 185 196 196 191 184 179 177 181 185 190 195 200 195 179 175 172 173 175 173 165 161 158 156 164 171 168 168
302 274 200 220 217 214 239 288 321 304 282 113 29 20 285 101 295 312 115 209 255 283 337 102 56 56 56 62 51 39 3 348 4 63 69 55 50 48 62 59 37 39 16 12 14 91 97 20 2 349 336 189 161 164 167 171 173 171 175 180 188 195 198 189 182 178 177 173 174 181 178 183 178 173 163 155 154 153 151 149 157 153 153 163 162 166 168
258 256 203 216 184 53 334 278 241 272 98 146 160 209 360 147 117 82 169 237 222 241 308 89 45 66 71 68 54 352 14 331 21 52 63 72 82 79 59 16 333 186 155 152 208 163 143 157 147 121 24 349 339 311 180 170 162 170 177 184 189 194 190 186 186 182 178 174 171 171 175 168 162 158 160 154 151 152 157 158 147 155 165 160 171 174 173
237 264 207 60 53 38 252 224 180 140 161 181 115 255 180 301 105 195 182 199 218 40 54 98 119 104 133 151 179 212 189 163 98 83 78 71 90 98 76 41 306 296 319 211 157 193 360 172 157 138 124 91 20 4 350 343 191 176 174 177 185 188 184 185 184 182 180 175 173 171 168 163 155 155 156 163 164 158 147 149 157 162 167 174 173 179 184
254 287 64 43 308 235 240 47 80 75 46 24 87 110 63 64 92 102 92 344 80 116 138 161 163 176 204 272 181 211 249 214 133 112 116 147 122 93 85 27 342 322 323 342 16 77 126 200 48 69 79 125 130 123 33 333 325 311 178 174 182 180 182 185 183 182 179 174 167 161 162 164 160 158 156 148 154 161 161 165 167 173 176 176 185 184 184
53 51 57 107 246 237 298 69 87 106 111 146 222 31 345 355 144 164 181 224 181 143 161 205 190 119 119 93 68 34 270 250 149 136 139 168 116 106 106 92 318 325 314 327 347 8 73 117 67 76 101 106 126 156 163 174 220 267 270 211 186 181 187 186 189 185 175 169 163 162 162 164 162 156 152 153 154 157 150 154 153 143 149 163 174 174 165
190 193 155 201 280 340 14 65 237 158 157 194 180 188 240 315 188 163 186 198 190 122 199 203 210 178 68 66 37 330 304 258 164 132 111 94 89 104 88 90 45 24 22 350 306 59 89 102 98 83 107 138 171 207 199 205 208 218 242 263 243 209 197 197 199 191 178 154 137 110 73 51 24 30 49 98 125 135 138 157 165 172 176 180 171 165 159
130 129 58 346 27 196 269 238 268 285 242 194 168 101 304 301 308 184 160 185 185 158 225 214 158 27 24 26 58 349 344 296 150 101 92 69 50 48 86 105 56 47 24 18 67 104 127 124 126 118 115 133 160 187 224 53 51 34 17 5 354 349 2 25 46 53 45 51 56 62 72 93 118 153 201 205 146 140 141 146 162 179 157 145 121 143 162
70 71 152 201 167 244 205 288 314 293 312 98 126 69 296 254 204 193 173 172 177 173 192 192 65 41 60 266 239 300 359 308 320 90 78 75 65 44 57 68 68 43 18 25 31 56 108 116 128 121 122 129 129 101 56 63 78 71 49 38 90 1 348 30 67 79 117 141 139 129 129 163 177 174 140 129 114 124 150 157 164 160 156 121 106 83 101
49 129 127 240 207 221 315 291 296 294 301 320 71 319 270 234 173 195 167 158 175 192 205 157 118 119 262 249 257 299 10 332 324 61 79 68 51 37 21 56 66 55 45 38 36 38 47 108 128 121 123 120 135 145 104 87 111 150 171 177 163 140 158 105 48 107 193 113 117 128 149 153 66 73 134 122 127 136 130 125 127 118 118 118 119 86 89
280 172 129 9 305 272 251 264 289 310 316 75 104 194 238 197 174 193 149 143 183 140 115 108 210 237 205 161 124 40 64 57 37 37 50 55 54 41 32 47 50 47 49 50 52 44 19 66 130 136 138 137 146 149 146 129 128 162 189 196 155 156 140 140 155 197 152 121 101 112 177 219 185 162 89 95 86 98 131 128 109 100 117 125 101 83 67
116 180 118 207 245 236 237 279 271 309 28 288 219 236 180 141 180 196 152 150 158 127 135 120 122 218 108 62 78 83 63 51 29 27 26 35 38 33 40 45 49 47 44 48 53 44 29 37 57 150 112 115 123 101 75 66 63 64 120 129 126 150 131 141 147 126 109 123 138 159 166 140 130 116 76 53 65 100 86 101 108 88 84 108 106 96 82
43 43 84 34 41 281 234 290 348 21 116 232 207 137 120 164 165 158 139 128 139 128 110 124 141 102 82 85 77 71 68 59 39 17 34 39 27 22 22 41 47 53 49 47 49 49 32 42 49 52 56 45 45 52 53 41 53 91 76 66 83 71 80 92 89 104 110 114 120 120 140 140 131 116 112 112 111 125 128 110 113 137 146 113 123 121 112
145 95 127 192 211 221 268 130 181 248 201 189 167 125 154 181 161 172 143 138 142 136 133 138 110 100 100 85 94 82 70 64 51 40 37 30 24 34 41 48 49 60 65 57 54 46 35 41 49 50 60 51 38 44 39 43 61 66 63 60 70 70 56 58 73 64 61 85 94 103 120 119 108 110 112 119 148 205 197 180 173 159 113 118 113 137 123
130 195 212 233 214 174 308 137 168 183 233 186 178 157 172 168 201 162 136 141 135 134 133 124 118 107 103 114 123 122 127 123 99 85 66 46 40 43 61 56 50 58 69 70 67 57 42 43 46 47 52 69 55 36 32 64 66 70 71 69 69 69 68 62 57 62 60 55 69 79 78 87 96 97 90 88 89 21 31 52 104 124 134 133 117 273 127
86 68 125 131 92 115 75 4 153 152 158 323 157 160 165 213 160 155 143 131 131 133 133 122 114 126 131 123 121 118 121 124 127 100 54 37 40 67 73 57 41 47 60 69 68 65 53 42 49 51 52 58 64 45 43 57 73 82 81 77 72 73 73 70 71 77 75 64 60 61 67 66 73 79 95 96 81 57 60 70 79 92 77 78 104 157 101
65 245 243 129 155 173 158 104 18 28 98 195 177 139 109 92 138 120 116 140 143 144 139 131 135 138 135 126 125 121 123 118 107 98 94 75 72 81 77 67 68 62 62 73 71 67 62 42 48 52 56 54 60 60 60 62 70 76 78 77 73 70 73 74 74 75 77 76 66 57 52 56 54 51 50 53 64 65 69 74 80 88 105 117 128 123 90
118 219 185 172 172 154 179 162 146 171 206 223 47 51 86 93 102 121 131 128 130 127 120 135 131 134 134 130 133 129 133 120 109 108 108 100 84 64 70 72 77 80 75 78 79 77 70 57 55 57 59 56 54 60 63 67 72 77 77 78 76 75 78 79 77 77 82 85 83 68 45 52 49 47 45 57 59 45 39 37 72 87 94 98 105 114 110
29 44 57 87 62 15 317 286 255 222 179 133 66 54 81 96 99 97 91 108 137 126 138 137 133 131 138 136 139 136 135 119 119 124 122 101 87 88 83 80 85 89 90 84 81 76 69 66 68 65 62 61 62 65 67 70 82 86 86 85 90 90 91 89 87 82 79 84 93 96 89 71 66 56 34 21 55 64 46 6 37 97 103 92 99 96 107
169 177 196 148 120 245 255 249 226 209 170 115 116 101 103 117 116 117 114 113 124 133 150 142 139 139 143 138 139 143 148 140 112 93 98 101 90 66 53 67 78 83 80 85 85 79 72 72 73 72 68 68 68 69 67 65 79 88 88 87 87 86 88 90 93 91 90 91 90 88 84 80 77 71 64 65 41 56 61 23 48 56 82 105 111 108 96
209 227 198 182 151 195 216 201 214 165 154 143 139 143 150 159 132 140 130 128 114 121 145 142 139 140 141 149 140 137 132 113 107 123 114 99 90 87 80 77 71 80 87 88 86 82 74 66 68 74 81 78 75 71 76 73 76 82 93 95 84 77 76 75 85 92 95 91 91 88 88 86 81 82 71 59 60 51 43 43 56 58 65 74 84 102 120
270 204 177 168 148 179 205 205 212 193 162 146 143 150 144 147 140 127 130 148 137 129 133 142 143 140 140 147 144 143 129 115 117 121 119 114 110 100 86 92 92 89 88 90 97 98 83 73 64 57 59 56 70 69 74 80 83 85 85 89 87 83 81 84 86 85 83 94 95 97 92 95 96 93 86 75 39 32 37 38 46 56 56 54 53 61 74
191 187 154 174 166 164 153 162 182 215 177 148 149 163 151 150 158 131 133 133 140 133 130 132 131 138 139 143 142 144 142 144 145 136 131 116 96 85 79 77 82 87 85 88 83 81 76 67 59 60 68 62 63 69 74 77 81 86 90 95 101 103 106 106 105 103 102 101 103 106 116 114 110 108 105 100 85 51 21 35 47 49 46 48 57 59 63
120 111 96 88 94 108 114 81 295 200 140 144 123 138 164 159 156 129 143 131 139 132 128 131 132 135 134 140 145 146 140 147 141 120 95 86 76 68 65 70 68 61 64 68 75 77 80 82 87 79 71 55 64 77 81 78 82 91 94 100 110 118 121 124 117 119 117 117 116 118 117 119 127 119 117 115 122 121 100 62 36 35 43 43 49 66 53
107 121 106 73 74 94 179 160 197 193 149 135 136 154 167 155 145 137 143 127 140 141 138 140 136 138 133 145 144 139 132 121 103 101 109 107 100 92 91 85 78 79 76 68 62 65 66 60 52 46 39 39 71 86 81 79 73 65 67 78 89 122 125 116 126 133 139 136 141 138 134 145 132 125 123 129 134 140 146 145 142 127 110 15 11 353 115
142 151 135 145 184 188 203 226 180 143 136 132 131 124 125 117 109 110 110 111 114 118 126 134 129 131 137 125 102 92 94 102 107 102 90 84 88 93 91 90 88 82 74 67 58 55 55 50 48 44 31 12 27 49 72 79 72 67 72 76 78 68 70 97 102 113 119 132 149 158 166 170 161 147 144 147 149 150 150 134 135 137 139 232 239 47 119
166 177 185 145 170 166 146 135 116 120 123 124 118 115 109 102 112 120 127 131 136 132 131 139 136 130 116 108 112 117 119 115 110 107 108 108 100 92 84 79 78 78 77 74 66 61 59 56 53 48 25 8 19 36 53 69 78 82 77 79 77 70 73 78 94 105 123 135 127 125 135 151 158 154 159 162 162 154 152 148 142 144 147 158 156 141 211
173 155 115 115 128 134 133 140 154 155 145 140 126 125 121 118 121 130 134 136 138 139 148 141 114 105 119 119 121 126 118 114 111 108 105 107 106 102 98 97 84 70 67 62 63 64 65 59 57 49 18 3 31 35 59 78 84 83 86 77 77 85 77 74 84 82 65 49 48 72 83 80 84 143 160 167 165 161 156 159 150 140 147 193 179 161 167
153 139 131 133 137 144 148 157 150 159 150 146 137 121 112 121 132 133 137 135 129 129 134 128 122 120 117 121 124 117 113 111 111 112 111 110 109 109 109 101 103 103 99 92 76 73 72 67 61 50 7 23 39 40 41 49 53 62 60 61 70 72 65 58 72 102 101 72 36 48 41 56 79 123 133 140 149 153 156 155 146 156 165 187 193 205 221
128 131 133 141 147 145 143 144 145 156 167 158 138 141 146 142 148 146 142 137 140 135 128 122 123 125 130 130 127 121 118 118 114 112 112 108 100 93 93 96 94 90 85 79 74 75 82 78 64 32 24 38 42 43 46 44 44 47 36 26 24 358 54 67 64 76 78 63 74 70 70 70 56 50 56 81 117 141 153 152 158 174 171 181 201 231 234
127 121 128 142 138 149 162 175 161 171 171 171 172 151 144 143 136 135 137 134 130 128 125 126 127 130 134 132 126 122 120 118 115 113 112 107 99 94 90 92 98 101 93 86 87 82 86 90 83 47 42 41 42 42 42 44 47 43 24 25 22 6 19 38 95 90 95 100 100 103 95 96 78 67 68 73 102 133 148 160 159 164 180 202 221 217 193
159 171 178 176 167 172 176 185 176 168 170 162 156 145 145 143 136 130 132 133 130 132 135 137 136 135 135 134 131 128 126 119 119 121 118 116 112 106 102 100 98 95 96 91 82 78 85 93 85 60 52 46 39 38 34 36 34 30 20 18 20 19 25 21 29 87 100 97 99 91 90 78 70 80 81 89 87 77 78 112 144 172 185 205 221 229 207
171 174 170 173 174 174 172 167 168 167 164 160 161 157 157 150 140 140 141 141 146 148 142 135 134 135 135 135 135 140 141 140 141 134 135 128 124 121 115 106 94 84 71 51 64 73 93 102 94 82 65 51 41 32 33 32 24 22 13 13 10 22 33 54 69 71 74 81 84 69 56 56 42 40 50 53 50 62 89 105 112 113 95 68 20 89 120
163 156 161 163 167 166 167 169 168 166 168 168 168 162 163 162 149 146 147 144 139 139 141 140 139 138 140 142 144 145 143 139 136 136 136 137 135 128 117 109 104 94 87 61 21 45 97 108 99 86 76 58 41 21 20 32 22 20 5 19 26 37 47 54 52 57 61 64 66 71 75 70 62 51 41 35 37 40 43 65 99 102 131 129 78 109 100
169 165 168 166 166 167 168 169 169 166 168 168 165 160 164 164 160 152 137 136 147 150 147 144 143 148 157 161 153 145 141 142 142 144 145 143 138 128 123 118 114 118 112 108 124 67 114 101 91 78 73 54 47 17 15 35 26 16 20 33 48 60 58 51 45 48 46 46 56 56 57 54 49 40 36 40 41 39 47 39 36 51 41 340 96 108 116
178 168 168 168 168 168 172 175 171 165 158 160 169 167 166 163 154 148 150 149 154 156 155 154 156 156 148 138 139 142 143 141 139 140 139 139 136 126 127 130 138 132 132 165 197 102 104 105 94 73 66 60 48 15 14 31 32 30 31 39 65 69 66 63 57 49 48 45 49 51 50 51 50 39 31 33 32 38 44 49 51 47 43 45 27 31 152
173 173 169 168 165 167 168 169 168 166 164 168 170 163 165 158 154 147 151 158 157 155 153 152 143 140 145 144 146 144 146 146 140 132 122 120 122 122 149 158 165 165 166 178 124 109 104 104 92 84 66 50 29 23 14 22 29 32 30 37 61 73 68 65 61 58 54 55 57 52 49 49 49 50 46 45 52 53 50 55 56 50 49 32 30 30 50
166 168 167 160 170 170 163 167 174 176 179 170 165 165 163 156 159 158 157 156 163 161 155 145 145 149 153 152 150 154 158 150 140 126 123 119 107 103 90 99 152 173 161 129 122 123 122 112 97 84 64 19 30 23 6 27 30 27 30 42 69 73 72 72 70 68 60 59 58 59 56 52 51 53 52 54 55 56 56 53 53 54 51 44 41 41 59
170 170 165 157 164 168 168 168 177 180 174 173 173 163 160 161 160 157 166 167 166 160 154 152 149 154 159 158 156 153 152 145 135 132 131 118 116 123 127 149 200 158 112 110 118 120 116 113 118 107 117 22 11 13 18 23 34 28 37 62 82 83 84 77 81 77 77 70 70 68 68 62 57 52 49 51 54 57 60 60 59 54 54 55 50 49 55
178 168 165 157 158 169 174 174 166 162 173 175 171 163 165 161 164 171 168 157 152 151 150 153 153 152 150 143 137 135 135 135 132 140 144 145 147 143 133 175 188 154 131 120 116 112 108 107 106 113 103 6 2 358 25 30 28 33 36 49 72 67 68 64 62 58 62 72 75 75 68 64 63 54 46 46 49 59 67 71 65 58 55 58 60 57 63
173 171 172 169 166 167 169 170 173 171 165 167 167 167 166 166 162 152 151 154 150 147 145 144 139 135 137 138 139 139 143 140 135 137 126 136 156 159 149 172 168 139 124 121 122 115 121 124 119 109 97 67 355 8 29 38 49 56 63 69 71 73 69 71 72 74 73 70 59 51 53 58 54 55 57 58 64 69 72 71 72 68 64 64 65 64 61
164 164 162 159 149 148 153 155 149 141 133 104 68 61 140 164 160 159 156 154 152 152 150 149 147 147 148 147 143 145 150 146 138 136 125 110 70 5 155 144 152 133 127 123 122 123 124 122 131 135 126 110 68 49 60 67 69 73 77 76 73 75 79 74 67 68 69 65 61 55 58 61 63 62 70 73 69 61 59 62 62 64 69 67 66 68 69
147 154 158 152 140 142 151 154 160 160 148 134 125 116 75 337 263 165 156 156 157 158 156 153 155 154 155 156 157 160 161 156 153 144 133 139 146 187 220 130 128 125 130 129 126 129 137 158 160 135 113 100 103 93 79 81 81 84 84 81 78 75 73 71 69 65 62 61 61 57 57 67 77 82 86 83 80 76 70 69 67 68 76 76 75 77 75
162 165 152 141 150 164 173 160 137 128 133 131 128 134 137 141 231 209 166 160 161 165 165 161 159 160 156 148 137 125 113 120 144 155 147 157 159 172 160 131 131 133 134 130 130 138 147 136 123 120 122 112 100 89 86 89 90 87 83 82 81 79 73 70 67 63 65 69 69 67 69 71 78 84 86 84 80 83 81 81 78 69 70 73 74 79 77
153 154 154 146 143 147 140 124 111 90 82 109 137 154 164 158 176 194 180 168 162 159 159 158 156 155 152 147 145 140 131 118 98 161 158 134 114 127 139 137 139 135 129 130 141 146 153 136 127 108 110 107 99 93 95 93 94 93 92 90 88 82 82 77 80 79 78 74 70 70 70 76 81 83 84 84 82 84 88 87 84 78 76 77 74 73 75
155 154 151 150 152 154 143 138 135 149 171 175 172 166 174 171 162 167 166 158 152 148 148 149 148 147 149 151 155 156 155 148 140 180 184 141 136 134 139 141 140 142 140 143 144 153 150 140 128 121 113 102 100 104 104 104 105 102 101 97 92 90 84 79 71 74 73 69 69 68 66 67 72 81 85 92 92 90 88 90 88 79 72 77 79 80 84
166 166 162 153 151 153 155 157 160 165 177 169 154 161 166 159 152 154 159 157 150 146 145 147 147 149 152 152 147 149 159 160 146 163 179 150 139 140 141 144 146 142 137 141 148 164 148 134 127 123 115 110 108 110 111 110 110 112 114 115 114 106 96 88 89 89 84 84 84 87 88 94 90 93 94 95 96 98 96 96 96 101 101 98 93 87 83
140 128 141 157 166 168 166 163 171 176 166 161 165 160 157 146 147 164 161 157 154 147 145 150 151 150 151 147 146 148 149 133 109 115 131 142 137 138 140 138 141 148 147 148 150 156 150 138 128 123 119 116 115 114 116 119 119 118 117 117 113 101 87 86 84 84 91 86 79 78 87 99 106 101 98 100 103 104 105 106 107 107 104 101 104 103 100
159 167 162 142 118 92 113 179 175 166 165 166 160 160 158 160 167 166 164 155 151 149 148 146 149 152 151 147 146 148 137 128 131 133 132 136 136 137 137 142 146 146 148 150 154 155 141 126 125 123 125 125 126 129 128 129 127 117 108 100 111 113 103 93 92 86 87 96 92 94 98 92 93 95 104 112 113 109 105 105 109 114 121 125 121 120 120
125 124 132 145 151 159 161 161 160 165 164 160 161 171 178 167 156 153 158 162 159 159 153 146 157 176 155 141 139 140 136 136 137 139 140 140 139 139 144 140 137 143 144 150 158 157 153 148 133 133 137 138 145 146 146 138 127 120 111 119 130 126 120 124 125 119 110 113 117 105 102 120 121 105 104 114 120 123 124 125 128 126 125 128 134 131 131